Time,TemperatureF,DewpointF,PressureIn,WindDirection,WindDirectionDegrees,WindSpeedMPH,WindSpeedGustMPH,Humidity,HourlyPrecipIn,Conditions,Clouds,dailyrainin,SoftwareType,DateUTC
2013-05-12 00:00:00,60.8,52.8,30.16,NNE,14,0.0,-999.0,75,0.00,,,0.00,Wunderground v.1.15,2013-05-12 05:00:00,
2013-05-12 00:05:00,60.8,52.8,30.16,NNE,14,0.0,-999.0,75,0.00,,,0.00,Wunderground v.1.15,2013-05-12 05:05:00,
2013-05-12 00:11:00,60.8,52.8,30.16,NNE,14,0.0,-999.0,75,0.00,,,0.00,Wunderground v.1.15,2013-05-12 05:11:00,
2013-05-12 00:16:00,60.8,53.2,30.16,NNE,14,0.0,-999.0,76,0.00,,,0.00,Wunderground v.1.15,2013-05-12 05:16:00,
2013-05-12 00:21:00,60.8,53.2,30.16,NNE,14,0.0,-999.0,76,0.00,,,0.00,Wunderground v.1.15,2013-05-12 05:21:00,
2013-05-12 00:26:00,60.7,53.1,30.16,North,354,0.0,-999.0,76,0.00,,,0.00,Wunderground v.1.15,2013-05-12 05:26:00,
2013-05-12 00:31:00,60.6,53.0,30.16,North,354,0.0,-999.0,76,0.00,,,0.00,Wunderground v.1.15,2013-05-12 05:31:00,
2013-05-12 00:36:00,60.5,52.9,30.16,North,355,0.0,-999.0,76,0.00,,,0.00,Wunderground v.1.15,2013-05-12 05:36:00,
2013-05-12 00:41:00,60.4,53.2,30.16,North,355,0.0,-999.0,77,0.00,,,0.00,Wunderground v.1.15,2013-05-12 05:41:00,
2013-05-12 00:46:00,60.3,53.1,30.16,North,355,2.0,-999.0,77,0.00,,,0.00,Wunderground v.1.15,2013-05-12 05:46:00,
2013-05-12 00:51:00,60.3,53.4,30.16,North,354,0.0,-999.0,78,0.00,,,0.00,Wunderground v.1.15,2013-05-12 05:51:00,
2013-05-12 00:56:00,60.3,53.4,30.16,North,353,0.0,-999.0,78,0.00,,,0.00,Wunderground v.1.15,2013-05-12 05:56:00,
2013-05-12 01:01:00,60.3,53.8,30.16,North,350,2.0,-999.0,79,0.00,,,0.00,Wunderground v.1.15,2013-05-12 06:01:00,
2013-05-12 01:06:00,60.3,53.8,30.16,North,350,0.0,-999.0,79,0.00,,,0.00,Wunderground v.1.15,2013-05-12 06:06:00,
2013-05-12 01:11:00,60.3,53.8,30.17,North,351,0.0,-999.0,79,0.00,,,0.00,Wunderground v.1.15,2013-05-12 06:11:00,
2013-05-12 01:16:00,60.2,53.7,30.17,North,356,0.0,-999.0,79,0.00,,,0.00,Wunderground v.1.15,2013-05-12 06:16:00,
2013-05-12 01:21:00,60.1,53.6,30.17,North,356,0.0,-999.0,79,0.00,,,0.00,Wunderground v.1.15,2013-05-12 06:21:00,
2013-05-12 01:26:00,60.1,53.9,30.17,North,358,0.0,-999.0,80,0.00,,,0.00,Wunderground v.1.15,2013-05-12 06:26:00,
2013-05-12 01:31:00,60.0,53.8,30.16,North,9,0.0,-999.0,80,0.00,,,0.00,Wunderground v.1.15,2013-05-12 06:31:00,
2013-05-12 01:36:00,59.9,54.1,30.16,North,10,2.0,-999.0,81,0.00,,,0.00,Wunderground v.1.15,2013-05-12 06:36:00,
2013-05-12 01:41:00,59.8,54.0,30.16,North,10,0.0,-999.0,81,0.00,,,0.00,Wunderground v.1.15,2013-05-12 06:41:00,
2013-05-12 01:46:00,59.8,54.0,30.16,North,10,0.0,-999.0,81,0.00,,,0.00,Wunderground v.1.15,2013-05-12 06:46:00,
2013-05-12 01:51:00,59.7,53.9,30.16,North,10,2.0,-999.0,81,0.00,,,0.00,Wunderground v.1.15,2013-05-12 06:51:00,
2013-05-12 01:57:00,59.6,53.8,30.16,North,11,3.0,-999.0,81,0.00,,,0.00,Wunderground v.1.15,2013-05-12 06:57:00,
2013-05-12 02:02:00,59.6,54.1,30.16,NNE,29,4.0,-999.0,82,0.00,,,0.00,Wunderground v.1.15,2013-05-12 07:02:00,
2013-05-12 02:08:00,59.6,54.1,30.16,NNE,22,3.0,-999.0,82,0.00,,,0.00,Wunderground v.1.15,2013-05-12 07:08:00,
2013-05-12 02:13:00,59.5,53.7,30.16,NNE,24,0.0,-999.0,81,0.00,,,0.00,Wunderground v.1.15,2013-05-12 07:13:00,
2013-05-12 02:19:00,59.4,53.6,30.16,NNE,24,1.0,-999.0,81,0.00,,,0.00,Wunderground v.1.15,2013-05-12 07:19:00,
2013-05-12 02:24:00,59.3,53.8,30.16,NNE,22,3.0,-999.0,82,0.00,,,0.00,Wunderground v.1.15,2013-05-12 07:24:00,
2013-05-12 02:29:00,59.2,53.7,30.17,NNE,22,3.0,-999.0,82,0.00,,,0.00,Wunderground v.1.15,2013-05-12 07:29:00,
2013-05-12 02:34:00,59.1,53.6,30.16,NNE,22,0.0,-999.0,82,0.00,,,0.00,Wunderground v.1.15,2013-05-12 07:34:00,
2013-05-12 02:40:00,58.9,53.4,30.17,NNE,22,0.0,-999.0,82,0.00,,,0.00,Wunderground v.1.15,2013-05-12 07:40:00,
2013-05-12 02:45:00,58.8,53.3,30.17,NNE,22,0.0,-999.0,82,0.00,,,0.00,Wunderground v.1.15,2013-05-12 07:45:00,
2013-05-12 02:50:00,58.6,53.1,30.17,NNE,22,0.0,-999.0,82,0.00,,,0.00,Wunderground v.1.15,2013-05-12 07:50:00,
2013-05-12 02:55:00,58.4,52.9,30.17,NNE,22,0.0,-999.0,82,0.00,,,0.00,Wunderground v.1.15,2013-05-12 07:55:00,
2013-05-12 03:00:00,58.2,52.7,30.17,NNE,22,0.0,-999.0,82,0.00,,,0.00,Wunderground v.1.15,2013-05-12 08:00:00,
2013-05-12 03:06:00,58.0,52.9,30.17,NNE,22,1.0,-999.0,83,0.00,,,0.00,Wunderground v.1.15,2013-05-12 08:06:00,
2013-05-12 03:13:00,57.7,52.2,30.18,North,6,0.0,-999.0,82,0.00,,,0.00,Wunderground v.1.15,2013-05-12 08:13:00,
2013-05-12 03:19:00,57.6,52.1,30.18,North,3,0.0,-999.0,82,0.00,,,0.00,Wunderground v.1.15,2013-05-12 08:19:00,
2013-05-12 03:24:00,57.5,52.0,30.18,North,3,0.0,-999.0,82,0.00,,,0.00,Wunderground v.1.15,2013-05-12 08:24:00,
2013-05-12 03:29:00,57.4,51.6,30.17,North,6,2.0,-999.0,81,0.00,,,0.00,Wunderground v.1.15,2013-05-12 08:29:00,
2013-05-12 03:34:00,57.3,51.5,30.17,NNE,14,3.0,-999.0,81,0.00,,,0.00,Wunderground v.1.15,2013-05-12 08:34:00,
2013-05-12 03:39:00,57.1,51.3,30.17,NNE,12,3.0,-999.0,81,0.00,,,0.00,Wunderground v.1.15,2013-05-12 08:39:00,
2013-05-12 03:45:00,57.0,50.9,30.17,NNE,14,0.0,-999.0,80,0.00,,,0.00,Wunderground v.1.15,2013-05-12 08:45:00,
2013-05-12 03:50:00,56.8,50.7,30.17,NNE,27,4.0,-999.0,80,0.00,,,0.00,Wunderground v.1.15,2013-05-12 08:50:00,
2013-05-12 03:55:00,56.8,50.4,30.17,NNE,14,4.0,-999.0,79,0.00,,,0.00,Wunderground v.1.15,2013-05-12 08:55:00,
2013-05-12 04:00:00,56.7,49.9,30.18,NNE,27,2.0,-999.0,78,0.00,,,0.00,Wunderground v.1.15,2013-05-12 09:00:00,
2013-05-12 04:05:00,56.6,49.8,30.18,NNE,17,6.0,-999.0,78,0.00,,,0.00,Wunderground v.1.15,2013-05-12 09:05:00,
2013-05-12 04:10:00,56.5,49.7,30.18,North,360,2.0,-999.0,78,0.00,,,0.00,Wunderground v.1.15,2013-05-12 09:10:00,
2013-05-12 04:15:00,56.4,49.3,30.18,NNE,30,3.0,-999.0,77,0.00,,,0.00,Wunderground v.1.15,2013-05-12 09:15:00,
2013-05-12 04:20:00,56.3,49.2,30.18,NNE,28,4.0,-999.0,77,0.00,,,0.00,Wunderground v.1.15,2013-05-12 09:20:00,
2013-05-12 04:25:00,56.1,48.6,30.18,NNE,22,3.0,-999.0,76,0.00,,,0.00,Wunderground v.1.15,2013-05-12 09:25:00,
2013-05-12 04:30:00,56.0,48.5,30.18,North,2,4.0,-999.0,76,0.00,,,0.00,Wunderground v.1.15,2013-05-12 09:30:00,
2013-05-12 04:35:00,55.9,48.4,30.18,NNE,16,3.0,-999.0,76,0.00,,,0.00,Wunderground v.1.15,2013-05-12 09:35:00,
2013-05-12 04:41:00,55.7,47.9,30.18,NE,35,1.0,-999.0,75,0.00,,,0.00,Wunderground v.1.15,2013-05-12 09:41:00,
2013-05-12 04:46:00,55.5,47.7,30.18,NNE,18,4.0,-999.0,75,0.00,,,0.00,Wunderground v.1.15,2013-05-12 09:46:00,
2013-05-12 04:51:00,55.3,47.5,30.18,NNE,28,3.0,-999.0,75,0.00,,,0.00,Wunderground v.1.15,2013-05-12 09:51:00,
2013-05-12 04:56:00,55.1,47.0,30.19,NNE,19,0.0,-999.0,74,0.00,,,0.00,Wunderground v.1.15,2013-05-12 09:56:00,
2013-05-12 05:01:00,54.9,46.8,30.19,NNE,16,2.0,-999.0,74,0.00,,,0.00,Wunderground v.1.15,2013-05-12 10:01:00,
2013-05-12 05:06:00,54.7,46.6,30.19,NNE,22,0.0,-999.0,74,0.00,,,0.00,Wunderground v.1.15,2013-05-12 10:06:00,
2013-05-12 05:11:00,54.5,46.4,30.19,NNE,25,6.0,-999.0,74,0.00,,,0.00,Wunderground v.1.15,2013-05-12 10:11:00,
2013-05-12 05:17:00,54.4,45.9,30.20,NNE,28,1.0,-999.0,73,0.00,,,0.00,Wunderground v.1.15,2013-05-12 10:17:00,
2013-05-12 05:22:00,54.3,45.8,30.20,NNE,23,2.0,-999.0,73,0.00,,,0.00,Wunderground v.1.15,2013-05-12 10:22:00,
2013-05-12 05:27:00,54.2,45.7,30.20,NNE,21,4.0,-999.0,73,0.00,,,0.00,Wunderground v.1.15,2013-05-12 10:27:00,
2013-05-12 05:32:00,54.1,45.3,30.20,NNE,26,4.0,-999.0,72,0.00,,,0.00,Wunderground v.1.15,2013-05-12 10:32:00,
2013-05-12 05:38:00,54.1,45.3,30.20,NNE,30,4.0,-999.0,72,0.00,,,0.00,Wunderground v.1.15,2013-05-12 10:38:00,
2013-05-12 05:43:00,54.0,45.2,30.20,NNE,26,1.0,-999.0,72,0.00,,,0.00,Wunderground v.1.15,2013-05-12 10:43:00,
2013-05-12 05:49:00,53.9,44.7,30.20,NNE,32,3.0,-999.0,71,0.00,,,0.00,Wunderground v.1.15,2013-05-12 10:49:00,
2013-05-12 05:54:00,53.8,44.6,30.20,NNE,28,0.0,-999.0,71,0.00,,,0.00,Wunderground v.1.15,2013-05-12 10:54:00,
2013-05-12 05:59:00,53.6,44.4,30.20,NNE,21,0.0,-999.0,71,0.00,,,0.00,Wunderground v.1.15,2013-05-12 10:59:00,
2013-05-12 06:05:00,53.4,44.2,30.20,NNE,22,0.0,-999.0,71,0.00,,,0.00,Wunderground v.1.15,2013-05-12 11:05:00,
2013-05-12 06:10:00,53.2,44.4,30.21,NNE,23,3.0,-999.0,72,0.00,,,0.00,Wunderground v.1.15,2013-05-12 11:10:00,
2013-05-12 06:16:00,53.0,43.8,30.21,NNE,23,2.0,-999.0,71,0.00,,,0.00,Wunderground v.1.15,2013-05-12 11:16:00,
2013-05-12 06:21:00,52.9,43.7,30.21,NNE,23,0.0,-999.0,71,0.00,,,0.00,Wunderground v.1.15,2013-05-12 11:21:00,
2013-05-12 06:27:00,52.7,43.6,30.22,NNE,24,0.0,-999.0,71,0.00,,,0.00,Wunderground v.1.15,2013-05-12 11:27:00,
2013-05-12 06:32:00,52.6,43.5,30.22,NNE,24,0.0,-999.0,71,0.00,,,0.00,Wunderground v.1.15,2013-05-12 11:32:00,
2013-05-12 06:37:00,52.5,43.0,30.22,NNE,24,4.0,-999.0,70,0.00,,,0.00,Wunderground v.1.15,2013-05-12 11:37:00,
2013-05-12 06:42:00,52.4,42.9,30.22,NNE,20,1.0,-999.0,70,0.00,,,0.00,Wunderground v.1.15,2013-05-12 11:42:00,
2013-05-12 06:47:00,52.4,42.9,30.22,NNE,20,0.0,-999.0,70,0.00,,,0.00,Wunderground v.1.15,2013-05-12 11:47:00,
2013-05-12 06:52:00,52.4,42.9,30.22,NNE,20,0.0,-999.0,70,0.00,,,0.00,Wunderground v.1.15,2013-05-12 11:52:00,
2013-05-12 06:58:00,52.5,43.0,30.22,NNE,20,3.0,-999.0,70,0.00,,,0.00,Wunderground v.1.15,2013-05-12 11:58:00,
2013-05-12 07:03:00,52.6,43.1,30.23,NNE,21,0.0,-999.0,70,0.00,,,0.00,Wunderground v.1.15,2013-05-12 12:03:00,
2013-05-12 07:09:00,52.7,43.2,30.23,NNE,21,0.0,-999.0,70,0.00,,,0.00,Wunderground v.1.15,2013-05-12 12:09:00,
2013-05-12 07:14:00,52.8,43.3,30.24,NNE,21,0.0,-999.0,70,0.00,,,0.00,Wunderground v.1.15,2013-05-12 12:14:00,
2013-05-12 07:20:00,53.0,43.8,30.24,NNE,21,2.0,-999.0,71,0.00,,,0.00,Wunderground v.1.15,2013-05-12 12:20:00,
2013-05-12 07:25:00,53.2,43.7,30.24,NNE,21,2.0,-999.0,70,0.00,,,0.00,Wunderground v.1.15,2013-05-12 12:25:00,
2013-05-12 07:30:00,53.5,44.0,30.24,NNE,21,2.0,-999.0,70,0.00,,,0.00,Wunderground v.1.15,2013-05-12 12:30:00,
2013-05-12 07:35:00,53.7,44.1,30.24,NNE,23,3.0,-999.0,70,0.00,,,0.00,Wunderground v.1.15,2013-05-12 12:35:00,
2013-05-12 07:40:00,53.9,44.0,30.24,NNE,24,3.0,-999.0,69,0.00,,,0.00,Wunderground v.1.15,2013-05-12 12:40:00,
2013-05-12 07:46:00,54.4,44.8,30.24,NNE,30,3.0,-999.0,70,0.00,,,0.00,Wunderground v.1.15,2013-05-12 12:46:00,
2013-05-12 07:51:00,54.8,44.4,30.24,NNE,28,4.0,-999.0,68,0.00,,,0.00,Wunderground v.1.15,2013-05-12 12:51:00,
2013-05-12 07:56:00,55.3,44.9,30.24,NNE,27,3.0,-999.0,68,0.00,,,0.00,Wunderground v.1.15,2013-05-12 12:56:00,
2013-05-12 08:01:00,55.7,44.9,30.24,NNE,28,7.0,-999.0,67,0.00,,,0.00,Wunderground v.1.15,2013-05-12 13:01:00,
2013-05-12 08:07:00,56.2,44.6,30.24,NNE,29,6.0,-999.0,65,0.00,,,0.00,Wunderground v.1.15,2013-05-12 13:07:00,
2013-05-12 08:12:00,56.7,45.1,30.24,NNE,33,10.0,-999.0,65,0.00,,,0.00,Wunderground v.1.15,2013-05-12 13:12:00,
2013-05-12 08:17:00,57.2,45.1,30.25,NNE,25,6.0,-999.0,64,0.00,,,0.00,Wunderground v.1.15,2013-05-12 13:17:00,
2013-05-12 08:22:00,57.6,45.1,30.25,NE,45,7.0,-999.0,63,0.00,,,0.00,Wunderground v.1.15,2013-05-12 13:22:00,
2013-05-12 08:27:00,58.1,44.7,30.25,NE,49,6.0,-999.0,61,0.00,,,0.00,Wunderground v.1.15,2013-05-12 13:27:00,
2013-05-12 08:32:00,58.6,44.8,30.25,NE,35,5.0,-999.0,60,0.00,,,0.00,Wunderground v.1.15,2013-05-12 13:32:00,
2013-05-12 08:37:00,59.1,44.8,30.25,NNE,13,9.0,-999.0,59,0.00,,,0.00,Wunderground v.1.15,2013-05-12 13:37:00,
2013-05-12 08:42:00,59.6,44.8,30.25,NNE,33,6.0,-999.0,58,0.00,,,0.00,Wunderground v.1.15,2013-05-12 13:42:00,
2013-05-12 08:47:00,60.0,44.3,30.25,NE,43,9.0,-999.0,56,0.00,,,0.00,Wunderground v.1.15,2013-05-12 13:47:00,
2013-05-12 08:52:00,60.5,45.2,30.25,NE,44,6.0,-999.0,57,0.00,,,0.00,Wunderground v.1.15,2013-05-12 13:52:00,
2013-05-12 08:57:00,61.1,44.8,30.25,NNE,32,9.0,-999.0,55,0.00,,,0.00,Wunderground v.1.15,2013-05-12 13:57:00,
2013-05-12 09:02:00,61.5,44.7,30.25,NE,49,10.0,-999.0,54,0.00,,,0.00,Wunderground v.1.15,2013-05-12 14:02:00,
2013-05-12 09:07:00,62.1,44.3,30.25,NE,47,10.0,-999.0,52,0.00,,,0.00,Wunderground v.1.15,2013-05-12 14:07:00,
2013-05-12 09:13:00,62.4,45.5,30.25,NNE,33,4.0,-999.0,54,0.00,,,0.00,Wunderground v.1.15,2013-05-12 14:13:00,
2013-05-12 09:18:00,62.9,45.5,30.25,NE,37,4.0,-999.0,53,0.00,,,0.00,Wunderground v.1.15,2013-05-12 14:18:00,
2013-05-12 09:23:00,63.6,45.1,30.25,NNE,28,11.0,-999.0,51,0.00,,,0.00,Wunderground v.1.15,2013-05-12 14:23:00,
2013-05-12 09:28:00,64.0,44.4,30.26,NE,37,7.0,-999.0,49,0.00,,,0.00,Wunderground v.1.15,2013-05-12 14:28:00,
2013-05-12 09:34:00,64.2,44.6,30.26,ENE,72,6.0,-999.0,49,0.00,,,0.00,Wunderground v.1.15,2013-05-12 14:34:00,
2013-05-12 09:40:00,64.7,44.5,30.26,ENE,60,2.0,-999.0,48,0.00,,,0.00,Wunderground v.1.15,2013-05-12 14:40:00,
2013-05-12 09:45:00,65.4,45.2,30.26,East,80,11.0,-999.0,48,0.00,,,0.00,Wunderground v.1.15,2013-05-12 14:45:00,
2013-05-12 09:50:00,66.1,45.8,30.25,ENE,59,17.0,-999.0,48,0.00,,,0.00,Wunderground v.1.15,2013-05-12 14:50:00,
2013-05-12 09:55:00,66.4,46.1,30.25,NNE,31,11.0,-999.0,48,0.00,,,0.00,Wunderground v.1.15,2013-05-12 14:55:00,
2013-05-12 10:00:00,66.7,45.8,30.25,ENE,63,9.0,-999.0,47,0.00,,,0.00,Wunderground v.1.15,2013-05-12 15:00:00,
2013-05-12 10:05:00,67.1,46.7,30.25,ENE,58,3.0,-999.0,48,0.00,,,0.00,Wunderground v.1.15,2013-05-12 15:05:00,
2013-05-12 10:10:00,67.6,46.1,30.25,NE,55,7.0,-999.0,46,0.00,,,0.00,Wunderground v.1.15,2013-05-12 15:10:00,
2013-05-12 10:15:00,68.0,45.3,30.25,ENE,61,6.0,-999.0,44,0.00,,,0.00,Wunderground v.1.15,2013-05-12 15:15:00,
2013-05-12 10:21:00,68.3,44.9,30.25,NE,38,9.0,-999.0,43,0.00,,,0.00,Wunderground v.1.15,2013-05-12 15:21:00,
2013-05-12 10:26:00,68.6,44.6,30.25,NNE,31,7.0,-999.0,42,0.00,,,0.00,Wunderground v.1.15,2013-05-12 15:26:00,
2013-05-12 10:31:00,69.1,45.7,30.25,East,85,10.0,-999.0,43,0.00,,,0.00,Wunderground v.1.15,2013-05-12 15:31:00,
2013-05-12 10:36:00,69.3,44.6,30.25,NE,48,9.0,-999.0,41,0.00,,,0.00,Wunderground v.1.15,2013-05-12 15:36:00,
2013-05-12 10:41:00,69.4,44.7,30.25,ENE,59,6.0,-999.0,41,0.00,,,0.00,Wunderground v.1.15,2013-05-12 15:41:00,
2013-05-12 10:47:00,69.7,43.6,30.25,East,86,6.0,-999.0,39,0.00,,,0.00,Wunderground v.1.15,2013-05-12 15:47:00,
2013-05-12 10:52:00,69.8,45.0,30.25,NE,41,8.0,-999.0,41,0.00,,,0.00,Wunderground v.1.15,2013-05-12 15:52:00,
2013-05-12 10:57:00,70.0,45.8,30.25,NE,55,6.0,-999.0,42,0.00,,,0.00,Wunderground v.1.15,2013-05-12 15:57:00,
2013-05-12 11:02:00,70.5,46.3,30.25,NE,44,4.0,-999.0,42,0.00,,,0.00,Wunderground v.1.15,2013-05-12 16:02:00,
2013-05-12 11:07:00,71.0,46.1,30.26,NE,51,2.0,-999.0,41,0.00,,,0.00,Wunderground v.1.15,2013-05-12 16:07:00,
2013-05-12 11:12:00,71.3,46.4,30.26,NE,51,5.0,-999.0,41,0.00,,,0.00,Wunderground v.1.15,2013-05-12 16:12:00,
2013-05-12 11:17:00,71.7,46.1,30.26,ENE,69,5.0,-999.0,40,0.00,,,0.00,Wunderground v.1.15,2013-05-12 16:17:00,
2013-05-12 11:22:00,71.7,46.1,30.26,NE,35,5.0,-999.0,40,0.00,,,0.00,Wunderground v.1.15,2013-05-12 16:22:00,
2013-05-12 11:27:00,71.9,48.2,30.26,East,82,8.0,-999.0,43,0.00,,,0.00,Wunderground v.1.15,2013-05-12 16:27:00,
2013-05-12 11:32:00,72.1,45.8,30.26,NE,51,2.0,-999.0,39,0.00,,,0.00,Wunderground v.1.15,2013-05-12 16:32:00,
2013-05-12 11:37:00,72.3,45.9,30.26,NE,54,2.0,-999.0,39,0.00,,,0.00,Wunderground v.1.15,2013-05-12 16:37:00,
2013-05-12 11:43:00,72.4,46.0,30.26,ENE,76,6.0,-999.0,39,0.00,,,0.00,Wunderground v.1.15,2013-05-12 16:43:00,
2013-05-12 11:48:00,72.4,46.0,30.26,East,97,5.0,-999.0,39,0.00,,,0.00,Wunderground v.1.15,2013-05-12 16:48:00,
2013-05-12 11:53:00,72.5,46.8,30.26,NE,34,4.0,-999.0,40,0.00,,,0.00,Wunderground v.1.15,2013-05-12 16:53:00,
2013-05-12 11:58:00,72.9,47.8,30.26,East,89,4.0,-999.0,41,0.00,,,0.00,Wunderground v.1.15,2013-05-12 16:58:00,
2013-05-12 12:03:00,73.1,45.3,30.26,ENE,63,0.0,-999.0,37,0.00,,,0.00,Wunderground v.1.15,2013-05-12 17:03:00,
2013-05-12 12:08:00,73.6,47.1,30.26,NNE,16,7.0,-999.0,39,0.00,,,0.00,Wunderground v.1.15,2013-05-12 17:08:00,
2013-05-12 12:13:00,73.9,47.4,30.26,ENE,72,3.0,-999.0,39,0.00,,,0.00,Wunderground v.1.15,2013-05-12 17:13:00,
2013-05-12 12:19:00,74.2,47.6,30.26,ENE,63,0.0,-999.0,39,0.00,,,0.00,Wunderground v.1.15,2013-05-12 17:19:00,
2013-05-12 12:24:00,73.9,45.3,30.25,East,79,4.0,-999.0,36,0.00,,,0.00,Wunderground v.1.15,2013-05-12 17:24:00,
2013-05-12 12:29:00,73.8,45.9,30.25,ENE,68,5.0,-999.0,37,0.00,,,0.00,Wunderground v.1.15,2013-05-12 17:29:00,
2013-05-12 12:34:00,73.7,43.6,30.25,East,80,2.0,-999.0,34,0.00,,,0.00,Wunderground v.1.15,2013-05-12 17:34:00,
2013-05-12 12:39:00,73.6,45.0,30.25,East,80,2.0,-999.0,36,0.00,,,0.00,Wunderground v.1.15,2013-05-12 17:39:00,
2013-05-12 12:44:00,73.5,43.4,30.24,NE,47,5.0,-999.0,34,0.00,,,0.00,Wunderground v.1.15,2013-05-12 17:44:00,
2013-05-12 12:50:00,74.0,48.1,30.25,ENE,78,5.0,-999.0,40,0.00,,,0.00,Wunderground v.1.15,2013-05-12 17:50:00,
2013-05-12 12:55:00,74.6,46.6,30.24,NE,37,1.0,-999.0,37,0.00,,,0.00,Wunderground v.1.15,2013-05-12 17:55:00,
2013-05-12 13:00:00,74.8,43.0,30.24,NE,43,0.0,-999.0,32,0.00,,,0.00,Wunderground v.1.15,2013-05-12 18:00:00,
2013-05-12 13:05:00,74.8,43.8,30.24,East,89,3.0,-999.0,33,0.00,,,0.00,Wunderground v.1.15,2013-05-12 18:05:00,
2013-05-12 13:10:00,74.2,42.4,30.24,SE,143,2.0,-999.0,32,0.00,,,0.00,Wunderground v.1.15,2013-05-12 18:10:00,
2013-05-12 13:15:00,74.4,47.1,30.24,NE,54,1.0,-999.0,38,0.00,,,0.00,Wunderground v.1.15,2013-05-12 18:15:00,
2013-05-12 13:20:00,75.1,50.4,30.24,NE,43,0.0,-999.0,42,0.00,,,0.00,Wunderground v.1.15,2013-05-12 18:20:00,
2013-05-12 13:25:00,75.9,45.5,30.24,NE,34,2.0,-999.0,34,0.00,,,0.00,Wunderground v.1.15,2013-05-12 18:25:00,
2013-05-12 13:30:00,76.9,46.4,30.23,NNE,30,2.0,-999.0,34,0.00,,,0.00,Wunderground v.1.15,2013-05-12 18:30:00,
2013-05-12 13:35:00,76.9,45.6,30.23,NE,41,2.0,-999.0,33,0.00,,,0.00,Wunderground v.1.15,2013-05-12 18:35:00,
2013-05-12 13:40:00,76.9,44.8,30.23,East,85,2.0,-999.0,32,0.00,,,0.00,Wunderground v.1.15,2013-05-12 18:40:00,
2013-05-12 13:46:00,76.4,46.7,30.23,NE,55,5.0,-999.0,35,0.00,,,0.00,Wunderground v.1.15,2013-05-12 18:46:00,
2013-05-12 13:51:00,77.0,48.7,30.23,ESE,110,2.0,-999.0,37,0.00,,,0.00,Wunderground v.1.15,2013-05-12 18:51:00,
2013-05-12 13:57:00,77.0,45.7,30.23,East,91,0.0,-999.0,33,0.00,,,0.00,Wunderground v.1.15,2013-05-12 18:57:00,
2013-05-12 14:02:00,76.7,43.8,30.23,ENE,69,6.0,-999.0,31,0.00,,,0.00,Wunderground v.1.15,2013-05-12 19:02:00,
2013-05-12 14:07:00,76.6,46.1,30.22,ENE,74,0.0,-999.0,34,0.00,,,0.00,Wunderground v.1.15,2013-05-12 19:07:00,
2013-05-12 14:12:00,76.4,43.5,30.22,East,88,4.0,-999.0,31,0.00,,,0.00,Wunderground v.1.15,2013-05-12 19:12:00,
2013-05-12 14:17:00,75.8,40.4,30.22,ENE,78,3.0,-999.0,28,0.00,,,0.00,Wunderground v.1.15,2013-05-12 19:17:00,
2013-05-12 14:22:00,75.5,44.4,30.22,East,97,0.0,-999.0,33,0.00,,,0.00,Wunderground v.1.15,2013-05-12 19:22:00,
2013-05-12 14:27:00,75.5,41.9,30.22,ESE,106,0.0,-999.0,30,0.00,,,0.00,Wunderground v.1.15,2013-05-12 19:27:00,
2013-05-12 14:32:00,75.4,40.9,30.21,WNW,292,4.0,-999.0,29,0.00,,,0.00,Wunderground v.1.15,2013-05-12 19:32:00,
2013-05-12 14:37:00,75.9,44.7,30.21,WNW,291,0.0,-999.0,33,0.00,,,0.00,Wunderground v.1.15,2013-05-12 19:37:00,
2013-05-12 14:42:00,75.7,45.3,30.21,West,271,0.0,-999.0,34,0.00,,,0.00,Wunderground v.1.15,2013-05-12 19:42:00,
2013-05-12 14:47:00,76.2,45.8,30.21,WNW,284,2.0,-999.0,34,0.00,,,0.00,Wunderground v.1.15,2013-05-12 19:47:00,
2013-05-12 14:52:00,77.2,44.2,30.21,NNE,30,6.0,-999.0,31,0.00,,,0.00,Wunderground v.1.15,2013-05-12 19:52:00,
2013-05-12 14:58:00,78.1,46.6,30.20,NNE,30,0.0,-999.0,33,0.00,,,0.00,Wunderground v.1.15,2013-05-12 19:58:00,
2013-05-12 15:03:00,78.9,47.3,30.20,ENE,78,7.0,-999.0,33,0.00,,,0.00,Wunderground v.1.15,2013-05-12 20:03:00,
2013-05-12 15:08:00,79.9,51.3,30.20,NE,56,2.0,-999.0,37,0.00,,,0.00,Wunderground v.1.15,2013-05-12 20:08:00,
2013-05-12 15:13:00,80.7,48.9,30.19,NE,43,0.0,-999.0,33,0.00,,,0.00,Wunderground v.1.15,2013-05-12 20:13:00,
2013-05-12 15:18:00,80.9,43.8,30.19,NE,35,6.0,-999.0,27,0.00,,,0.00,Wunderground v.1.15,2013-05-12 20:18:00,
2013-05-12 15:23:00,80.2,46.8,30.19,East,85,4.0,-999.0,31,0.00,,,0.00,Wunderground v.1.15,2013-05-12 20:23:00,
2013-05-12 15:28:00,79.5,44.5,30.19,NE,53,0.0,-999.0,29,0.00,,,0.00,Wunderground v.1.15,2013-05-12 20:28:00,
2013-05-12 15:33:00,79.0,44.9,30.19,NE,56,0.0,-999.0,30,0.00,,,0.00,Wunderground v.1.15,2013-05-12 20:33:00,
2013-05-12 15:38:00,79.1,45.0,30.19,ENE,69,1.0,-999.0,30,0.00,,,0.00,Wunderground v.1.15,2013-05-12 20:38:00,
2013-05-12 15:43:00,79.3,43.4,30.19,ENE,69,0.0,-999.0,28,0.00,,,0.00,Wunderground v.1.15,2013-05-12 20:43:00,
2013-05-12 15:48:00,79.9,48.2,30.19,ENE,68,0.0,-999.0,33,0.00,,,0.00,Wunderground v.1.15,2013-05-12 20:48:00,
2013-05-12 15:53:00,80.9,49.9,30.18,NNE,22,3.0,-999.0,34,0.00,,,0.00,Wunderground v.1.15,2013-05-12 20:53:00,
2013-05-12 15:58:00,81.8,46.4,30.18,NE,42,5.0,-999.0,29,0.00,,,0.00,Wunderground v.1.15,2013-05-12 20:58:00,
2013-05-12 16:04:00,82.0,46.6,30.18,ENE,78,5.0,-999.0,29,0.00,,,0.00,Wunderground v.1.15,2013-05-12 21:04:00,
2013-05-12 16:09:00,81.8,46.4,30.18,NE,56,0.0,-999.0,29,0.00,,,0.00,Wunderground v.1.15,2013-05-12 21:09:00,
2013-05-12 16:14:00,82.1,43.8,30.18,East,89,7.0,-999.0,26,0.00,,,0.00,Wunderground v.1.15,2013-05-12 21:14:00,
2013-05-12 16:19:00,81.5,46.2,30.18,NE,51,3.0,-999.0,29,0.00,,,0.00,Wunderground v.1.15,2013-05-12 21:19:00,
2013-05-12 16:24:00,81.5,44.3,30.18,NE,51,0.0,-999.0,27,0.00,,,0.00,Wunderground v.1.15,2013-05-12 21:24:00,
2013-05-12 16:30:00,81.1,41.9,30.18,East,85,2.0,-999.0,25,0.00,,,0.00,Wunderground v.1.15,2013-05-12 21:30:00,
2013-05-12 16:35:00,80.4,46.1,30.18,East,87,6.0,-999.0,30,0.00,,,0.00,Wunderground v.1.15,2013-05-12 21:35:00,
2013-05-12 16:40:00,80.4,41.3,30.18,NE,34,7.0,-999.0,25,0.00,,,0.00,Wunderground v.1.15,2013-05-12 21:40:00,
2013-05-12 16:45:00,80.7,41.6,30.18,ENE,61,0.0,-999.0,25,0.00,,,0.00,Wunderground v.1.15,2013-05-12 21:45:00,
2013-05-12 16:50:00,81.1,43.9,30.17,NNE,28,5.0,-999.0,27,0.00,,,0.00,Wunderground v.1.15,2013-05-12 21:50:00,
2013-05-12 16:55:00,81.6,44.4,30.17,ENE,58,2.0,-999.0,27,0.00,,,0.00,Wunderground v.1.15,2013-05-12 21:55:00,
2013-05-12 17:00:00,81.9,43.6,30.17,NE,54,2.0,-999.0,26,0.00,,,0.00,Wunderground v.1.15,2013-05-12 22:00:00,
2013-05-12 17:06:00,82.2,43.9,30.17,NE,55,3.0,-999.0,26,0.00,,,0.00,Wunderground v.1.15,2013-05-12 22:06:00,
2013-05-12 17:11:00,82.2,42.9,30.17,NE,43,0.0,-999.0,25,0.00,,,0.00,Wunderground v.1.15,2013-05-12 22:11:00,
2013-05-12 17:16:00,81.8,43.6,30.17,NE,53,0.0,-999.0,26,0.00,,,0.00,Wunderground v.1.15,2013-05-12 22:16:00,
2013-05-12 17:21:00,81.3,39.9,30.17,ENE,58,6.0,-999.0,23,0.00,,,0.00,Wunderground v.1.15,2013-05-12 22:21:00,
2013-05-12 17:27:00,80.9,37.3,30.16,ENE,63,0.0,-999.0,21,0.00,,,0.00,Wunderground v.1.15,2013-05-12 22:27:00,
2013-05-12 17:32:00,81.3,43.1,30.16,ENE,62,2.0,-999.0,26,0.00,,,0.00,Wunderground v.1.15,2013-05-12 22:32:00,
2013-05-12 17:38:00,81.5,42.3,30.16,NE,51,0.0,-999.0,25,0.00,,,0.00,Wunderground v.1.15,2013-05-12 22:38:00,
2013-05-12 17:43:00,82.0,45.7,30.16,NE,53,1.0,-999.0,28,0.00,,,0.00,Wunderground v.1.15,2013-05-12 22:43:00,
2013-05-12 17:49:00,82.2,41.8,30.16,ENE,66,4.0,-999.0,24,0.00,,,0.00,Wunderground v.1.15,2013-05-12 22:49:00,
2013-05-12 17:54:00,81.7,42.4,30.16,East,97,3.0,-999.0,25,0.00,,,0.00,Wunderground v.1.15,2013-05-12 22:54:00,
2013-05-12 18:00:00,81.3,41.0,30.16,East,97,0.0,-999.0,24,0.00,,,0.00,Wunderground v.1.15,2013-05-12 23:00:00,
2013-05-12 18:05:00,80.6,42.5,30.16,East,97,0.0,-999.0,26,0.00,,,0.00,Wunderground v.1.15,2013-05-12 23:05:00,
2013-05-12 18:10:00,80.3,38.0,30.15,East,101,0.0,-999.0,22,0.00,,,0.00,Wunderground v.1.15,2013-05-12 23:10:00,
2013-05-12 18:15:00,80.0,41.0,30.15,East,101,0.0,-999.0,25,0.00,,,0.00,Wunderground v.1.15,2013-05-12 23:15:00,
2013-05-12 18:20:00,80.2,43.2,30.16,East,101,0.0,-999.0,27,0.00,,,0.00,Wunderground v.1.15,2013-05-12 23:20:00,
2013-05-12 18:25:00,80.8,41.7,30.15,East,101,0.0,-999.0,25,0.00,,,0.00,Wunderground v.1.15,2013-05-12 23:25:00,
2013-05-12 18:30:00,81.2,42.0,30.15,East,101,0.0,-999.0,25,0.00,,,0.00,Wunderground v.1.15,2013-05-12 23:30:00,
2013-05-12 18:35:00,81.6,43.4,30.15,East,101,0.0,-999.0,26,0.00,,,0.00,Wunderground v.1.15,2013-05-12 23:35:00,
2013-05-12 18:40:00,81.7,44.5,30.15,East,101,0.0,-999.0,27,0.00,,,0.00,Wunderground v.1.15,2013-05-12 23:40:00,
2013-05-12 18:45:00,81.1,43.0,30.15,East,101,0.0,-999.0,26,0.00,,,0.00,Wunderground v.1.15,2013-05-12 23:45:00,
2013-05-12 18:50:00,80.8,42.7,30.15,East,101,0.0,-999.0,26,0.00,,,0.00,Wunderground v.1.15,2013-05-12 23:50:00,
2013-05-12 18:56:00,80.7,46.4,30.15,East,101,0.0,-999.0,30,0.00,,,0.00,Wunderground v.1.15,2013-05-12 23:56:00,
2013-05-12 19:02:00,80.2,45.9,30.15,East,101,0.0,-999.0,30,0.00,,,0.00,Wunderground v.1.15,2013-05-13 00:02:00,
2013-05-12 19:07:00,79.9,46.6,30.14,East,101,2.0,-999.0,31,0.00,,,0.00,Wunderground v.1.15,2013-05-13 00:07:00,
2013-05-12 19:12:00,79.2,43.3,30.14,East,101,0.0,-999.0,28,0.00,,,0.00,Wunderground v.1.15,2013-05-13 00:12:00,
2013-05-12 19:17:00,78.5,45.3,30.14,East,101,2.0,-999.0,31,0.00,,,0.00,Wunderground v.1.15,2013-05-13 00:17:00,
2013-05-12 19:23:00,77.7,46.3,30.14,East,101,0.0,-999.0,33,0.00,,,0.00,Wunderground v.1.15,2013-05-13 00:23:00,
2013-05-12 19:28:00,76.8,47.1,30.14,East,101,0.0,-999.0,35,0.00,,,0.00,Wunderground v.1.15,2013-05-13 00:28:00,
2013-05-12 19:33:00,75.8,52.3,30.14,East,101,0.0,-999.0,44,0.00,,,0.00,Wunderground v.1.15,2013-05-13 00:33:00,
2013-05-12 19:38:00,75.2,51.2,30.14,East,101,0.0,-999.0,43,0.00,,,0.00,Wunderground v.1.15,2013-05-13 00:38:00,
2013-05-12 19:43:00,74.6,50.6,30.14,East,101,0.0,-999.0,43,0.00,,,0.00,Wunderground v.1.15,2013-05-13 00:43:00,
2013-05-12 19:48:00,74.0,53.1,30.14,East,101,0.0,-999.0,48,0.00,,,0.00,Wunderground v.1.15,2013-05-13 00:48:00,
2013-05-12 19:53:00,73.5,50.2,30.14,East,101,0.0,-999.0,44,0.00,,,0.00,Wunderground v.1.15,2013-05-13 00:53:00,
2013-05-12 19:58:00,73.2,54.0,30.14,East,101,0.0,-999.0,51,0.00,,,0.00,Wunderground v.1.15,2013-05-13 00:58:00,
2013-05-12 20:03:00,72.7,51.3,30.14,East,101,0.0,-999.0,47,0.00,,,0.00,Wunderground v.1.15,2013-05-13 01:03:00,
2013-05-12 20:08:00,72.0,52.3,30.14,East,101,0.0,-999.0,50,0.00,,,0.00,Wunderground v.1.15,2013-05-13 01:08:00,
2013-05-12 20:13:00,71.3,51.7,30.14,East,101,0.0,-999.0,50,0.00,,,0.00,Wunderground v.1.15,2013-05-13 01:13:00,
2013-05-12 20:18:00,70.6,51.6,30.14,East,101,0.0,-999.0,51,0.00,,,0.00,Wunderground v.1.15,2013-05-13 01:18:00,
2013-05-12 20:23:00,69.8,50.9,30.14,East,101,0.0,-999.0,51,0.00,,,0.00,Wunderground v.1.15,2013-05-13 01:23:00,
2013-05-12 20:29:00,69.0,50.1,30.14,East,101,0.0,-999.0,51,0.00,,,0.00,Wunderground v.1.15,2013-05-13 01:29:00,
2013-05-12 20:34:00,68.1,49.8,30.14,East,101,0.0,-999.0,52,0.00,,,0.00,Wunderground v.1.15,2013-05-13 01:34:00,
2013-05-12 20:39:00,67.3,50.1,30.14,East,101,0.0,-999.0,54,0.00,,,0.00,Wunderground v.1.15,2013-05-13 01:39:00,
2013-05-12 20:44:00,66.6,48.9,30.15,East,101,0.0,-999.0,53,0.00,,,0.00,Wunderground v.1.15,2013-05-13 01:44:00,
2013-05-12 20:50:00,65.8,49.2,30.15,East,101,0.0,-999.0,55,0.00,,,0.00,Wunderground v.1.15,2013-05-13 01:50:00,
2013-05-12 20:55:00,65.2,49.1,30.15,East,101,0.0,-999.0,56,0.00,,,0.00,Wunderground v.1.15,2013-05-13 01:55:00,
2013-05-12 21:00:00,64.5,48.4,30.15,East,101,0.0,-999.0,56,0.00,,,0.00,Wunderground v.1.15,2013-05-13 02:00:00,
2013-05-12 21:05:00,63.8,48.7,30.15,East,101,0.0,-999.0,58,0.00,,,0.00,Wunderground v.1.15,2013-05-13 02:05:00,
2013-05-12 21:11:00,63.2,50.0,30.15,East,101,0.0,-999.0,62,0.00,,,0.00,Wunderground v.1.15,2013-05-13 02:11:00,
2013-05-12 21:16:00,62.7,49.1,30.15,East,101,0.0,-999.0,61,0.00,,,0.00,Wunderground v.1.15,2013-05-13 02:16:00,
2013-05-12 21:21:00,62.0,47.5,30.15,East,101,0.0,-999.0,59,0.00,,,0.00,Wunderground v.1.15,2013-05-13 02:21:00,
2013-05-12 21:26:00,61.5,48.4,30.15,East,101,0.0,-999.0,62,0.00,,,0.00,Wunderground v.1.15,2013-05-13 02:26:00,
2013-05-12 21:31:00,60.9,45.1,30.16,East,101,0.0,-999.0,56,0.00,,,0.00,Wunderground v.1.15,2013-05-13 02:31:00,
2013-05-12 21:37:00,60.8,46.4,30.16,East,101,0.0,-999.0,59,0.00,,,0.00,Wunderground v.1.15,2013-05-13 02:37:00,
2013-05-12 21:42:00,60.8,45.5,30.16,East,101,1.0,-999.0,57,0.00,,,0.00,Wunderground v.1.15,2013-05-13 02:42:00,
2013-05-12 21:47:00,60.8,45.9,30.16,East,101,0.0,-999.0,58,0.00,,,0.00,Wunderground v.1.15,2013-05-13 02:47:00,
2013-05-12 21:52:00,60.7,45.8,30.16,East,101,0.0,-999.0,58,0.00,,,0.00,Wunderground v.1.15,2013-05-13 02:52:00,
2013-05-12 21:57:00,60.6,45.3,30.17,East,101,0.0,-999.0,57,0.00,,,0.00,Wunderground v.1.15,2013-05-13 02:57:00,
2013-05-12 22:02:00,60.4,45.1,30.17,East,101,0.0,-999.0,57,0.00,,,0.00,Wunderground v.1.15,2013-05-13 03:02:00,
2013-05-12 22:08:00,60.2,46.3,30.17,East,101,0.0,-999.0,60,0.00,,,0.00,Wunderground v.1.15,2013-05-13 03:08:00,
2013-05-12 22:13:00,60.0,46.9,30.17,East,101,0.0,-999.0,62,0.00,,,0.00,Wunderground v.1.15,2013-05-13 03:13:00,
2013-05-12 22:19:00,59.6,47.4,30.17,East,101,0.0,-999.0,64,0.00,,,0.00,Wunderground v.1.15,2013-05-13 03:19:00,
2013-05-12 22:25:00,59.2,46.2,30.18,East,101,0.0,-999.0,62,0.00,,,0.00,Wunderground v.1.15,2013-05-13 03:25:00,
2013-05-12 22:30:00,58.8,47.5,30.18,East,101,0.0,-999.0,66,0.00,,,0.00,Wunderground v.1.15,2013-05-13 03:30:00,
2013-05-12 22:36:00,58.5,47.2,30.18,East,101,0.0,-999.0,66,0.00,,,0.00,Wunderground v.1.15,2013-05-13 03:36:00,
2013-05-12 22:41:00,58.2,47.7,30.18,East,101,0.0,-999.0,68,0.00,,,0.00,Wunderground v.1.15,2013-05-13 03:41:00,
2013-05-12 22:47:00,57.8,46.9,30.18,East,101,0.0,-999.0,67,0.00,,,0.00,Wunderground v.1.15,2013-05-13 03:47:00,
2013-05-12 22:52:00,57.8,45.3,30.18,East,101,0.0,-999.0,63,0.00,,,0.00,Wunderground v.1.15,2013-05-13 03:52:00,
2013-05-12 22:57:00,58.4,45.0,30.18,East,101,0.0,-999.0,61,0.00,,,0.00,Wunderground v.1.15,2013-05-13 03:57:00,
2013-05-12 23:01:00,58.8,44.9,30.18,East,101,0.0,-999.0,60,0.00,,,0.00,Wunderground v.1.15,2013-05-13 04:01:00,
2013-05-12 23:02:00,58.9,45.0,30.18,East,101,0.0,-999.0,60,0.00,,,0.00,Wunderground v.1.15,2013-05-13 04:02:00,
2013-05-12 23:07:00,59.1,44.8,30.18,East,101,0.0,-999.0,59,0.00,,,0.00,Wunderground v.1.15,2013-05-13 04:07:00,
2013-05-12 23:12:00,59.2,44.9,30.18,East,101,0.0,-999.0,59,0.00,,,0.00,Wunderground v.1.15,2013-05-13 04:12:00,
2013-05-12 23:17:00,59.1,45.2,30.18,East,101,0.0,-999.0,60,0.00,,,0.00,Wunderground v.1.15,2013-05-13 04:17:00,
2013-05-12 23:23:00,58.9,45.9,30.19,East,101,0.0,-999.0,62,0.00,,,0.00,Wunderground v.1.15,2013-05-13 04:23:00,
2013-05-12 23:28:00,58.6,46.0,30.18,East,101,0.0,-999.0,63,0.00,,,0.00,Wunderground v.1.15,2013-05-13 04:28:00,
2013-05-12 23:33:00,58.3,46.6,30.19,East,101,0.0,-999.0,65,0.00,,,0.00,Wunderground v.1.15,2013-05-13 04:33:00,
2013-05-12 23:38:00,57.8,45.3,30.19,East,101,0.0,-999.0,63,0.00,,,0.00,Wunderground v.1.15,2013-05-13 04:38:00,
2013-05-12 23:43:00,57.5,45.4,30.19,East,101,0.0,-999.0,64,0.00,,,0.00,Wunderground v.1.15,2013-05-13 04:43:00,
2013-05-12 23:48:00,57.3,44.0,30.19,East,101,0.0,-999.0,61,0.00,,,0.00,Wunderground v.1.15,2013-05-13 04:48:00,
2013-05-12 23:53:00,57.3,44.0,30.19,East,101,0.0,-999.0,61,0.00,,,0.00,Wunderground v.1.15,2013-05-13 04:53:00,
2013-05-12 23:58:00,57.2,43.9,30.19,East,101,0.0,-999.0,61,0.00,,,0.00,Wunderground v.1.15,2013-05-13 04:58:00,